{"data":{"norad_id":62841,"intl_designator":"2025-019N","name":"STARLINK-11531 [DTC]","alt_names":[],"object_type":"PAYLOAD","status":"ACTIVE","operator":null,"country":"US","launch_date":"2025-01-27","launch_site_code":"AFETR","launch_vehicle":null,"mission":null,"orbit_class":"UNKNOWN","rcs_meters":null,"size_class":null,"mass_kg":null,"dimensions":null,"purposes":["comms"],"wikipedia_slug":null,"has_3d_model":false,"image_url":null,"decayed_at":null,"tle_current":{"epoch":"2026-09-20T22:04:13.510848Z","epoch_age_seconds":131918,"freshness":"FRESH","line1":"1 62841U 25019N   26263.91960082  .00156255  00000+0  11966-2 0  9990","line2":"2 62841  42.9993 209.3496 0001594 223.7192 136.3550 15.70877518 94585","mean_motion":15.70877518,"eccentricity":0.0001594,"inclination_deg":42.9993,"raan_deg":209.3496,"arg_perigee_deg":223.7192,"mean_anomaly_deg":136.355,"bstar":0.0011966,"rev_number":9458,"period_min":91.668509065772,"perigee_km":355.31434697927,"apogee_km":357.46131349515,"semimajor_km":6734.5248302372,"source":"CELESTRAK","updated_at":"2026-09-22T09:00:49.673447Z"}}}